Location: Gro�sch�nbrunn
(49.5760°N, 11.8868°E)
Time: 22:42:31
(UTC+00:00)

Cosmos 1844 Rocket - Pass Details

Date: 18 September 2020
Orbit: 823 x 846 km, 71.0° (Epoch: 20 October)

Event Time Altitude Azimuth Distance (km) Brightness Sun altitude
Rises 17:57:49 0° 154° (SSE) 3,347 5.5 -7.2°
Reaches altitude 10° 18:01:10 10° 134° (SE) 2,422 4.6 -7.7°
Maximum altitude 18:04:23 16° 98° (E) 2,043 4.1 -8.2°
Drops below altitude 10° 18:07:37 10° 62° (ENE) 2,438 4.7 -8.7°
Sets 18:10:59 0° 42° (NE) 3,382 5.6 -9.3°
